Location: Innsbruck
(47.2657°N, 11.3914°E)
Time: 20:50:12
(UTC+01:00)

BEESAT 2 - Pass Details

Date: 06 December 2021
Orbit: 498 x 513 km, 64.9° (Epoch: 24 January)

Event Time Altitude Azimuth Distance (km) Brightness Sun altitude
Exits shadow 04:43:32 20° 53° (NE) 1,252 ? -30.0°
Drops below altitude 10° 04:45:48 10° 87° (E) 1,743 ? -29.6°
Sets 04:48:24 0° 104° (ESE) 2,624 ? -29.2°
